Time,TemperatureF,DewpointF,PressureIn,WindDirection,WindDirectionDegrees,WindSpeedMPH,WindSpeedGustMPH,Humidity,HourlyPrecipIn,Conditions,Clouds,dailyrainin,SolarRadiationWatts/m^2,SoftwareType,DateUTC
2013-05-06 00:02:00,53.0,22.0,-100.00,SE,134,3.0,11.0,29,0.00,,,0.00,0.000000,,2013-05-06 06:02:00,
2013-05-06 00:12:00,53.0,22.0,-100.00,SE,134,3.0,11.0,29,0.00,,,0.00,0.000000,,2013-05-06 06:12:00,
2013-05-06 00:21:00,50.0,23.0,-100.00,East,99,0.0,8.0,35,0.00,,,0.00,0.000000,,2013-05-06 06:21:00,
2013-05-06 00:42:00,50.0,23.0,-100.00,East,99,0.0,8.0,35,0.00,,,0.00,0.000000,,2013-05-06 06:42:00,
2013-05-06 00:52:00,50.0,23.0,-100.00,East,99,0.0,8.0,35,0.00,,,0.00,0.000000,,2013-05-06 06:52:00,
2013-05-06 01:01:00,50.0,23.0,-100.00,East,99,0.0,8.0,35,0.00,,,0.00,0.000000,,2013-05-06 07:01:00,
2013-05-06 01:11:00,50.0,23.0,-100.00,East,99,0.0,8.0,35,0.00,,,0.00,0.000000,,2013-05-06 07:11:00,
2013-05-06 01:21:00,50.0,22.0,-100.00,SE,125,2.0,6.0,33,0.00,,,0.00,0.000000,,2013-05-06 07:21:00,
2013-05-06 01:42:00,50.0,22.0,-100.00,SE,125,2.0,6.0,33,0.00,,,0.00,0.000000,,2013-05-06 07:42:00,
2013-05-06 01:52:00,50.0,22.0,-100.00,SE,125,2.0,6.0,33,0.00,,,0.00,0.000000,,2013-05-06 07:52:00,
2013-05-06 02:02:00,50.0,22.0,-100.00,SE,125,2.0,6.0,33,0.00,,,0.00,0.000000,,2013-05-06 08:02:00,
2013-05-06 02:12:00,50.0,22.0,-100.00,SE,125,2.0,6.0,33,0.00,,,0.00,0.000000,,2013-05-06 08:12:00,
2013-05-06 02:21:00,50.0,22.0,-100.00,ESE,123,1.0,6.0,33,0.00,,,0.00,0.000000,,2013-05-06 08:21:00,
2013-05-06 02:42:00,50.0,22.0,-100.00,ESE,123,1.0,6.0,33,0.00,,,0.00,0.000000,,2013-05-06 08:42:00,
2013-05-06 02:52:00,50.0,22.0,-100.00,ESE,123,1.0,6.0,33,0.00,,,0.00,0.000000,,2013-05-06 08:52:00,
2013-05-06 03:01:00,50.0,22.0,-100.00,ESE,123,1.0,6.0,33,0.00,,,0.00,0.000000,,2013-05-06 09:01:00,
2013-05-06 03:11:00,50.0,22.0,-100.00,ESE,123,1.0,6.0,33,0.00,,,0.00,0.000000,,2013-05-06 09:11:00,
2013-05-06 03:21:00,50.0,22.0,-100.00,SE,135,4.0,6.0,33,0.00,,,0.00,0.000000,,2013-05-06 09:21:00,
2013-05-06 03:43:00,50.0,22.0,-100.00,SE,135,4.0,6.0,33,0.00,,,0.00,0.000000,,2013-05-06 09:43:00,
2013-05-06 03:53:00,50.0,22.0,-100.00,SE,135,4.0,6.0,33,0.00,,,0.00,0.000000,,2013-05-06 09:53:00,
2013-05-06 04:02:00,50.0,22.0,-100.00,SE,135,4.0,6.0,33,0.00,,,0.00,0.000000,,2013-05-06 10:02:00,
2013-05-06 04:12:00,50.0,22.0,-100.00,SE,135,4.0,6.0,33,0.00,,,0.00,0.000000,,2013-05-06 10:12:00,
2013-05-06 04:21:00,46.0,21.0,-100.00,East,96,0.0,6.0,36,0.00,,,0.00,0.000000,,2013-05-06 10:21:00,
2013-05-06 04:42:00,46.0,21.0,-100.00,East,96,0.0,6.0,36,0.00,,,0.00,0.000000,,2013-05-06 10:42:00,
2013-05-06 04:52:00,46.0,21.0,-100.00,East,96,0.0,6.0,36,0.00,,,0.00,0.000000,,2013-05-06 10:52:00,
2013-05-06 05:02:00,46.0,21.0,-100.00,East,96,0.0,6.0,36,0.00,,,0.00,0.000000,,2013-05-06 11:02:00,
2013-05-06 05:12:00,46.0,21.0,-100.00,East,96,0.0,6.0,36,0.00,,,0.00,0.000000,,2013-05-06 11:12:00,
2013-05-06 05:21:00,41.0,22.0,-100.00,East,85,3.0,6.0,47,0.00,,,0.00,0.000000,,2013-05-06 11:21:00,
2013-05-06 05:42:00,41.0,22.0,-100.00,East,85,3.0,6.0,47,0.00,,,0.00,0.000000,,2013-05-06 11:42:00,
2013-05-06 05:52:00,41.0,22.0,-100.00,East,85,3.0,6.0,47,0.00,,,0.00,0.000000,,2013-05-06 11:52:00,
2013-05-06 06:01:00,41.0,22.0,-100.00,East,85,3.0,6.0,47,0.00,,,0.00,0.000000,,2013-05-06 12:01:00,
2013-05-06 06:12:00,41.0,22.0,-100.00,East,85,3.0,6.0,47,0.00,,,0.00,0.000000,,2013-05-06 12:12:00,
2013-05-06 06:21:00,43.0,25.0,-100.00,East,81,1.0,5.0,49,0.00,,,0.00,20.000000,,2013-05-06 12:21:00,
2013-05-06 06:42:00,43.0,25.0,-100.00,East,81,1.0,5.0,49,0.00,,,0.00,20.000000,,2013-05-06 12:42:00,
2013-05-06 06:52:00,43.0,25.0,-100.00,East,81,1.0,5.0,49,0.00,,,0.00,20.000000,,2013-05-06 12:52:00,
2013-05-06 07:01:00,43.0,25.0,-100.00,East,81,1.0,5.0,49,0.00,,,0.00,20.000000,,2013-05-06 13:01:00,
2013-05-06 07:11:00,43.0,25.0,-100.00,East,81,1.0,5.0,49,0.00,,,0.00,20.000000,,2013-05-06 13:11:00,
2013-05-06 07:21:00,48.0,27.0,-100.00,East,88,0.0,4.0,44,0.00,,,0.00,172.000000,,2013-05-06 13:21:00,
2013-05-06 07:42:00,48.0,27.0,-100.00,East,88,0.0,4.0,44,0.00,,,0.00,172.000000,,2013-05-06 13:42:00,
2013-05-06 07:52:00,48.0,27.0,-100.00,East,88,0.0,4.0,44,0.00,,,0.00,172.000000,,2013-05-06 13:52:00,
2013-05-06 08:01:00,48.0,27.0,-100.00,East,88,0.0,4.0,44,0.00,,,0.00,172.000000,,2013-05-06 14:01:00,
2013-05-06 08:11:00,48.0,27.0,-100.00,East,88,0.0,4.0,44,0.00,,,0.00,172.000000,,2013-05-06 14:11:00,
2013-05-06 08:21:00,53.0,30.0,-100.00,ESE,122,0.0,4.0,41,0.00,,,0.00,142.000000,,2013-05-06 14:21:00,
2013-05-06 08:42:00,53.0,30.0,-100.00,ESE,122,0.0,4.0,41,0.00,,,0.00,142.000000,,2013-05-06 14:42:00,
2013-05-06 08:52:00,53.0,30.0,-100.00,ESE,122,0.0,4.0,41,0.00,,,0.00,142.000000,,2013-05-06 14:52:00,
2013-05-06 09:01:00,53.0,30.0,-100.00,ESE,122,0.0,4.0,41,0.00,,,0.00,142.000000,,2013-05-06 15:01:00,
2013-05-06 09:11:00,53.0,30.0,-100.00,ESE,122,0.0,4.0,41,0.00,,,0.00,142.000000,,2013-05-06 15:11:00,
2013-05-06 09:21:00,60.0,29.0,-100.00,SE,143,3.0,7.0,31,0.00,,,0.00,397.000000,,2013-05-06 15:21:00,
2013-05-06 09:43:00,60.0,29.0,-100.00,SE,143,3.0,7.0,31,0.00,,,0.00,397.000000,,2013-05-06 15:43:00,
2013-05-06 09:53:00,60.0,29.0,-100.00,SE,143,3.0,7.0,31,0.00,,,0.00,397.000000,,2013-05-06 15:53:00,
2013-05-06 10:03:00,60.0,29.0,-100.00,SE,143,3.0,7.0,31,0.00,,,0.00,397.000000,,2013-05-06 16:03:00,
2013-05-06 10:13:00,60.0,29.0,-100.00,SE,143,3.0,7.0,31,0.00,,,0.00,397.000000,,2013-05-06 16:13:00,
2013-05-06 10:21:00,66.0,31.0,-100.00,ESE,117,2.0,9.0,27,0.00,,,0.00,829.000000,,2013-05-06 16:21:00,
2013-05-06 10:42:00,66.0,31.0,-100.00,ESE,117,2.0,9.0,27,0.00,,,0.00,829.000000,,2013-05-06 16:42:00,
2013-05-06 10:52:00,66.0,31.0,-100.00,ESE,117,2.0,9.0,27,0.00,,,0.00,829.000000,,2013-05-06 16:52:00,
2013-05-06 11:03:00,66.0,31.0,-100.00,ESE,117,2.0,9.0,27,0.00,,,0.00,829.000000,,2013-05-06 17:03:00,
2013-05-06 11:12:00,66.0,31.0,-100.00,ESE,117,2.0,9.0,27,0.00,,,0.00,829.000000,,2013-05-06 17:12:00,
2013-05-06 11:21:00,67.0,30.0,-100.00,ESE,105,3.0,11.0,25,0.00,,,0.00,987.000000,,2013-05-06 17:21:00,
2013-05-06 11:42:00,67.0,30.0,-100.00,ESE,105,3.0,11.0,25,0.00,,,0.00,987.000000,,2013-05-06 17:42:00,
2013-05-06 11:52:00,67.0,30.0,-100.00,ESE,105,3.0,11.0,25,0.00,,,0.00,987.000000,,2013-05-06 17:52:00,
2013-05-06 12:01:00,67.0,30.0,-100.00,ESE,105,3.0,11.0,25,0.00,,,0.00,987.000000,,2013-05-06 18:01:00,
2013-05-06 12:12:00,67.0,30.0,-100.00,ESE,105,3.0,11.0,25,0.00,,,0.00,987.000000,,2013-05-06 18:12:00,
2013-05-06 12:21:00,70.0,27.0,-100.00,SSE,158,6.0,11.0,20,0.00,,,0.00,1091.000000,,2013-05-06 18:21:00,
2013-05-06 12:43:00,70.0,27.0,-100.00,SSE,158,6.0,11.0,20,0.00,,,0.00,1091.000000,,2013-05-06 18:43:00,
2013-05-06 12:52:00,70.0,27.0,-100.00,SSE,158,6.0,11.0,20,0.00,,,0.00,1091.000000,,2013-05-06 18:52:00,
2013-05-06 13:01:00,70.0,27.0,-100.00,SSE,158,6.0,11.0,20,0.00,,,0.00,1091.000000,,2013-05-06 19:01:00,
2013-05-06 13:11:00,70.0,27.0,-100.00,SSE,158,6.0,11.0,20,0.00,,,0.00,1091.000000,,2013-05-06 19:11:00,
2013-05-06 13:21:00,71.0,27.0,-100.00,SSE,156,7.0,16.0,19,0.00,,,0.00,1131.000000,,2013-05-06 19:21:00,
2013-05-06 13:42:00,71.0,27.0,-100.00,SSE,156,7.0,16.0,19,0.00,,,0.00,1131.000000,,2013-05-06 19:42:00,
2013-05-06 13:52:00,71.0,27.0,-100.00,SSE,156,7.0,16.0,19,0.00,,,0.00,1131.000000,,2013-05-06 19:52:00,
2013-05-06 14:02:00,71.0,27.0,-100.00,SSE,156,7.0,16.0,19,0.00,,,0.00,1131.000000,,2013-05-06 20:02:00,
2013-05-06 14:11:00,71.0,27.0,-100.00,SSE,156,7.0,16.0,19,0.00,,,0.00,1131.000000,,2013-05-06 20:11:00,
2013-05-06 14:21:00,74.0,29.0,-100.00,SSE,151,6.0,17.0,19,0.00,,,0.00,1095.000000,,2013-05-06 20:21:00,
2013-05-06 14:42:00,74.0,29.0,-100.00,SSE,151,6.0,17.0,19,0.00,,,0.00,1095.000000,,2013-05-06 20:42:00,
2013-05-06 14:52:00,74.0,29.0,-100.00,SSE,151,6.0,17.0,19,0.00,,,0.00,1095.000000,,2013-05-06 20:52:00,
2013-05-06 15:01:00,74.0,29.0,-100.00,SSE,151,6.0,17.0,19,0.00,,,0.00,1095.000000,,2013-05-06 21:01:00,
2013-05-06 15:11:00,74.0,29.0,-100.00,SSE,151,6.0,17.0,19,0.00,,,0.00,1095.000000,,2013-05-06 21:11:00,
2013-05-06 15:21:00,76.0,29.0,-100.00,ESE,110,2.0,13.0,18,0.00,,,0.00,1021.000000,,2013-05-06 21:21:00,
2013-05-06 15:43:00,76.0,29.0,-100.00,ESE,110,2.0,13.0,18,0.00,,,0.00,1021.000000,,2013-05-06 21:43:00,
2013-05-06 15:53:00,76.0,29.0,-100.00,ESE,110,2.0,13.0,18,0.00,,,0.00,1021.000000,,2013-05-06 21:53:00,
2013-05-06 16:03:00,76.0,29.0,-100.00,ESE,110,2.0,13.0,18,0.00,,,0.00,1021.000000,,2013-05-06 22:03:00,
2013-05-06 16:12:00,76.0,29.0,-100.00,ESE,110,2.0,13.0,18,0.00,,,0.00,1021.000000,,2013-05-06 22:12:00,
2013-05-06 16:21:00,75.0,29.0,-100.00,ESE,108,4.0,14.0,18,0.00,,,0.00,883.000000,,2013-05-06 22:21:00,
2013-05-06 16:45:00,75.0,29.0,-100.00,ESE,108,4.0,14.0,18,0.00,,,0.00,883.000000,,2013-05-06 22:45:00,
2013-05-06 16:52:00,75.0,29.0,-100.00,ESE,108,4.0,14.0,18,0.00,,,0.00,883.000000,,2013-05-06 22:52:00,
2013-05-06 17:03:00,75.0,29.0,-100.00,ESE,108,4.0,14.0,18,0.00,,,0.00,883.000000,,2013-05-06 23:03:00,
2013-05-06 17:12:00,75.0,29.0,-100.00,ESE,108,4.0,14.0,18,0.00,,,0.00,883.000000,,2013-05-06 23:12:00,
2013-05-06 17:21:00,76.0,29.0,-100.00,ESE,104,3.0,15.0,18,0.00,,,0.00,696.000000,,2013-05-06 23:21:00,
2013-05-06 17:42:00,76.0,29.0,-100.00,ESE,104,3.0,15.0,18,0.00,,,0.00,696.000000,,2013-05-06 23:42:00,
2013-05-06 17:52:00,76.0,29.0,-100.00,ESE,104,3.0,15.0,18,0.00,,,0.00,696.000000,,2013-05-06 23:52:00,
2013-05-06 18:01:00,76.0,29.0,-100.00,ESE,104,3.0,15.0,18,0.00,,,0.00,696.000000,,2013-05-07 00:01:00,
2013-05-06 18:11:00,76.0,29.0,-100.00,ESE,104,3.0,15.0,18,0.00,,,0.00,696.000000,,2013-05-07 00:11:00,
2013-05-06 18:21:00,74.0,29.0,-100.00,ESE,109,2.0,13.0,19,0.00,,,0.00,483.000000,,2013-05-07 00:21:00,
2013-05-06 18:42:00,74.0,29.0,-100.00,ESE,109,2.0,13.0,19,0.00,,,0.00,483.000000,,2013-05-07 00:42:00,
2013-05-06 18:52:00,74.0,29.0,-100.00,ESE,109,2.0,13.0,19,0.00,,,0.00,483.000000,,2013-05-07 00:52:00,
2013-05-06 19:01:00,74.0,29.0,-100.00,ESE,109,2.0,13.0,19,0.00,,,0.00,483.000000,,2013-05-07 01:01:00,
2013-05-06 19:11:00,74.0,29.0,-100.00,ESE,109,2.0,13.0,19,0.00,,,0.00,483.000000,,2013-05-07 01:11:00,
2013-05-06 19:21:00,71.0,28.0,-100.00,ESE,104,2.0,16.0,20,0.00,,,0.00,261.000000,,2013-05-07 01:21:00,
2013-05-06 19:42:00,71.0,28.0,-100.00,ESE,104,2.0,16.0,20,0.00,,,0.00,261.000000,,2013-05-07 01:42:00,
2013-05-06 19:53:00,71.0,28.0,-100.00,ESE,104,2.0,16.0,20,0.00,,,0.00,261.000000,,2013-05-07 01:53:00,
2013-05-06 20:02:00,71.0,28.0,-100.00,ESE,104,2.0,16.0,20,0.00,,,0.00,261.000000,,2013-05-07 02:02:00,
2013-05-06 20:11:00,71.0,28.0,-100.00,ESE,104,2.0,16.0,20,0.00,,,0.00,261.000000,,2013-05-07 02:11:00,
2013-05-06 20:21:00,65.0,28.0,-100.00,East,93,1.0,8.0,25,0.00,,,0.00,57.000000,,2013-05-07 02:21:00,
2013-05-06 20:42:00,65.0,28.0,-100.00,East,93,1.0,8.0,25,0.00,,,0.00,57.000000,,2013-05-07 02:42:00,
2013-05-06 20:52:00,65.0,28.0,-100.00,East,93,1.0,8.0,25,0.00,,,0.00,57.000000,,2013-05-07 02:52:00,
2013-05-06 21:01:00,65.0,28.0,-100.00,East,93,1.0,8.0,25,0.00,,,0.00,57.000000,,2013-05-07 03:01:00,
2013-05-06 21:11:00,65.0,28.0,-100.00,East,93,1.0,8.0,25,0.00,,,0.00,57.000000,,2013-05-07 03:11:00,
2013-05-06 21:21:00,61.0,27.0,-100.00,ESE,110,1.0,8.0,27,0.00,,,0.00,0.000000,,2013-05-07 03:21:00,
2013-05-06 21:43:00,61.0,27.0,-100.00,ESE,110,1.0,8.0,27,0.00,,,0.00,0.000000,,2013-05-07 03:43:00,
2013-05-06 21:53:00,61.0,27.0,-100.00,ESE,110,1.0,8.0,27,0.00,,,0.00,0.000000,,2013-05-07 03:53:00,
2013-05-06 22:03:00,61.0,27.0,-100.00,ESE,110,1.0,8.0,27,0.00,,,0.00,0.000000,,2013-05-07 04:03:00,
2013-05-06 22:12:00,61.0,27.0,-100.00,ESE,110,1.0,8.0,27,0.00,,,0.00,0.000000,,2013-05-07 04:12:00,
2013-05-06 22:21:00,61.0,28.0,-100.00,SE,135,7.0,12.0,28,0.00,,,0.00,0.000000,,2013-05-07 04:21:00,
2013-05-06 22:42:00,61.0,28.0,-100.00,SE,135,7.0,12.0,28,0.00,,,0.00,0.000000,,2013-05-07 04:42:00,
2013-05-06 22:53:00,61.0,28.0,-100.00,SE,135,7.0,12.0,28,0.00,,,0.00,0.000000,,2013-05-07 04:53:00,
2013-05-06 23:02:00,61.0,28.0,-100.00,SE,135,7.0,12.0,28,0.00,,,0.00,0.000000,,2013-05-07 05:02:00,
2013-05-06 23:12:00,61.0,28.0,-100.00,SE,135,7.0,12.0,28,0.00,,,0.00,0.000000,,2013-05-07 05:12:00,
2013-05-06 23:21:00,60.0,26.0,-100.00,SE,131,6.0,19.0,27,0.00,,,0.00,0.000000,,2013-05-07 05:21:00,
2013-05-06 23:42:00,60.0,26.0,-100.00,SE,131,6.0,19.0,27,0.00,,,0.00,0.000000,,2013-05-07 05:42:00,
2013-05-06 23:52:00,60.0,26.0,-100.00,SE,131,6.0,19.0,27,0.00,,,0.00,0.000000,,2013-05-07 05:52:00,